Wautoma, WI

9:53 AM CST on February 24, 2017 (GMT -0600)
Wautoma

Weather History for KY50 - February, 2013

Change the Weather History Date:

Monday, February 18, 2013

  Actual Average (KPCZ) Record (KPCZ)
Temperature  
Mean Temperature 32 °F -  
Max Temperature 41 °F 31 °F 59 °F (1981)
Min Temperature 22 °F 15 °F -18 °F (2006)
Degree Days  
Heating Degree Days 34    
Moisture  
Dew Point 23 °F    
Average Humidity 75    
Maximum Humidity 93    
Minimum Humidity 60    
Precipitation  
Precipitation 0.00 in - - ()
Sea Level Pressure  
Sea Level Pressure 29.57 in    
Wind  
Wind Speed 0 mph (North)    
Max Wind Speed 0 mph    
Max Gust Speed -    
Visibility 8 miles    
Events Rain , Snow    
Averages and records for this station are not official NWS values.
T = Trace of Precipitation, MM = Missing Value Source: NWS Daily Summary

Daily Weather History Graph

Daily Weather History Graph

Search for Another Location

Airport or City:

Trip Planner

Search our weather history database for the weather conditions in past years. The results will help you decide how hot, cold, wet, or windy it might be!

Date:

Astronomy

Feb. 18, 2013 Rise Set
Actual Time 6:51 AM CST 5:31 PM CST
Civil Twilight 6:22 AM CST 6:00 PM CST
Nautical Twilight 5:48 AM CST 6:34 PM CST
Astronomical Twilight 5:15 AM CST 7:07 PM CST
Moon 11:11 AM CST (2/18) 1:36 AM CST (2/18)
Length of Visible Light 11h 38m
Length of Day
10h 39m
First Quarter, 58% of the Moon is Illuminated
Feb 18
First Quarter
Feb 25
Full
Mar 4
Last Quarter
Mar 11
New
Mar 19
First Quarter

Hourly Weather History & Observations

Time (CST) Temp. Dew Point Humidity Pressure Visibility Wind Dir Wind Speed Gust Speed Precip Events Conditions
12:56 AM 22.1 °F 12.0 °F 65% 29.91 in 10.0 mi Calm Calm - N/A   Clear
1:56 AM 22.1 °F 13.1 °F 68% 29.85 in 10.0 mi Calm Calm - N/A   Clear
2:56 AM 22.1 °F 13.1 °F 68% 29.81 in 10.0 mi Calm Calm - N/A   Clear
3:56 AM 22.1 °F 13.1 °F 68% 29.77 in 10.0 mi Calm Calm - N/A   Clear
5:56 AM 22.1 °F 14.0 °F 71% 29.73 in 10.0 mi Calm Calm - N/A   Clear
6:56 AM 22.1 °F 15.1 °F 74% 29.70 in 10.0 mi Calm Calm - N/A   Clear
7:56 AM 23.0 °F 16.2 °F 75% 29.68 in 10.0 mi Calm Calm - N/A   Clear
8:56 AM 28.0 °F 19.0 °F 69% 29.66 in 10.0 mi Calm Calm - N/A   Clear
9:56 AM 32.0 °F 22.1 °F 67% 29.63 in 10.0 mi Calm Calm - N/A   Clear
10:56 AM 34.9 °F 24.1 °F 65% 29.61 in 10.0 mi Calm Calm - N/A   Clear
11:56 AM 37.4 °F 24.8 °F 60% 29.57 in 10.0 mi Calm Calm - N/A   Clear
12:56 PM 38.8 °F 27.1 °F 63% 29.54 in 10.0 mi Calm Calm - N/A   Clear
1:56 PM 39.9 °F 27.1 °F 60% 29.52 in 10.0 mi Calm Calm - N/A   Clear
2:56 PM 41.0 °F 28.4 °F 61% 29.51 in 10.0 mi Calm Calm - N/A   Mostly Cloudy
3:56 PM 39.9 °F 29.1 °F 65% 29.51 in 10.0 mi Calm Calm - N/A   Overcast
5:56 PM 37.4 °F 28.4 °F 70% 29.49 in 10.0 mi Calm Calm - N/A Rain Light Rain
6:56 PM 34.9 °F 29.1 °F 79% 29.51 in 10.0 mi Calm Calm - 0.00 in   Overcast
7:31 PM 33.8 °F 28.4 °F 81% 29.47 in 10.0 mi Calm Calm - N/A   Mostly Cloudy
7:56 PM 34.0 °F 29.1 °F 82% 29.49 in 9.0 mi Calm Calm - N/A   Mostly Cloudy
8:15 PM 33.8 °F 28.4 °F 81% 29.46 in 8.0 mi Calm Calm - N/A   Overcast
8:56 PM 33.8 °F 28.4 °F 81% 29.46 in 10.0 mi Calm Calm - N/A   Overcast
9:07 PM 33.8 °F 26.6 °F 75% 29.46 in 10.0 mi Calm Calm - N/A   Overcast
9:56 PM 31.1 °F 27.1 °F 85% 29.47 in 10.0 mi Calm Calm - 0.00 in   Overcast
10:04 PM 30.2 °F 26.6 °F 86% 29.45 in 8.0 mi Calm Calm - N/A   Overcast
10:21 PM 30.2 °F 26.6 °F 86% 29.45 in 4.0 mi Calm Calm - 0.00 in Snow Light Snow
10:32 PM 28.4 °F 26.6 °F 93% 29.46 in 2.0 mi Calm Calm - 0.00 in Snow Light Snow
10:44 PM 28.4 °F 24.8 °F 86% 29.47 in 1.8 mi Calm Calm - 0.00 in Snow Light Snow
10:56 PM 27.1 °F 24.1 °F 88% 29.49 in 1.8 mi Calm Calm - 0.00 in Snow Light Snow
11:37 PM 24.8 °F 21.2 °F 86% 29.49 in 2.0 mi Calm Calm - 0.00 in Snow Light Snow
11:43 PM 24.8 °F 21.2 °F 86% 29.49 in 1.8 mi Calm Calm - 0.00 in Snow Light Snow
11:56 PM 23.0 °F 19.4 °F 86% 29.51 in 2.0 mi Calm Calm - N/A Snow Light Snow